Regional Weather Roundup
Issued by NWS Burlington, VT

Current Version | Previous Version | Text Only | Print | Product List | Glossary On
Versions: 1 2 3 4 5 6 7 8 9 10 11 12 13 14 15 16 17 18 19 20 21 22 23 24 25 26 27 28 29 30 31 32 33 34 35 36 37 38 39 40 41 42 43 44 45 46 47 48 49 50
000 ASUS41 KBTV 020710 RWRBTV VERMONT REGIONAL WEATHER ROUNDUP NATIONAL WEATHER SERVICE BURLINGTON VT 300 AM EDT TUE SEP 02 2014 NOTE: "FAIR" INDICATES FEW OR NO CLOUDS BELOW 12,000 FEET WITH NO SIGNIFICANT WEATHER AND/OR OBSTRUCTIONS TO VISIBILITY. * THESE REPORTS ARE NOT UNDER NWS QUALITY CONTROL AND/OR DO NOT REPORT WEATHER SUCH AS PRECIPITATION AND FOG. VTZ001>019-020800- _____VERMONT_____ CITY SKY/WX TMP DP RH WIND PRES REMARKS BURLINGTON MOSUNNY 73 64 73 S6 29.84F MONTPELIER SUNNY 62 61 96 CALM 29.94F FOG MORRISVILLE MOSUNNY 60 59 96 CALM 29.90R ST. JOHNSBURY* N/A 61 59 93 MISG 29.89F MIDDLEBURY* PTSUNNY 74 68 80 S5 29.86F RUTLAND* PTSUNNY 66 63 88 S5 29.89F SPRINGFIELD PTSUNNY 63 63 100 CALM 29.91F FOG HIGHGATE* CLOUDY 69 65 86 S3 29.82F NEWPORT* FAIR 65 62 89 S5 29.90S BENNINGTON MOSUNNY 65 64 97 CALM 29.90F FOG _____LAKE CHAMPLAIN_____ CITY SKY/WX TMP DP RH WIND PRES REMARKS COLCHESTER RF* N/A 72 68 88 S16 N/A DIAMOND ISL* N/A 70 66 88 SW6 N/A $$ NYZ007-026>031-035-052-083-020800- _____NORTHERN NEW YORK_____ CITY SKY/WX TMP DP RH WIND PRES REMARKS PLATTSBURGH MOSUNNY 64 63 96 CALM 29.82F SARANAC LAKE SUNNY 57 55 93 CALM 29.88F MASSENA PTSUNNY 67 66 97 CALM 29.79F OGDENSBURG* SUNNY 72 70 94 S3 29.78F POTSDAM* SUNNY 73 70 88 SW5 29.80F WATERTOWN PTSUNNY 75 66 73 S6 29.79F FT DRUM MOSUNNY 73 66 79 S7 29.81F ALBANY PTSUNNY 75 70 84 S7 29.87F GLENS FALLS MOSUNNY 65 64 97 CALM 29.87S FOG $$ NHZ002-005-011-020800- _____NEW HAMPSHIRE_____ CITY SKY/WX TMP DP RH WIND PRES REMARKS LEBANON CLOUDY 64 61 90 CALM 29.90F KEENE SUNNY 64 55 72 CALM 29.92F MT WASHINGTON FOG 54 54 100 W26 N/A VSB 1/16 PLYMOUTH FAIR 60 60 100 CALM 29.91F FOG WHITEFIELD SUNNY 56 54 93 CALM 29.92F FOG $$ _____REGIONAL QUEBEC LOCATIONS_____ CITY SKY/WX TMP DP RH WIND PRES REMARKS MONTREAL MOSUNNY 72 66 83 S9 29.78F QUEBEC CITY CLOUDY 61 59 94 NE7 29.87F SHERBROOKE SUNNY 61 59 94 E3 29.88F _____REGIONAL ONTARIO LOCATIONS_____ CITY SKY/WX TMP DP RH WIND PRES REMARKS OTTAWA PTSUNNY 72 68 88 S6 29.77F ______KEY______ VSB - VISIBILITY IN MILES WCI - WIND CHILL INDEX HX - HEAT INDEX $$ NNNN

USA.gov is the U.S. government's official web portal to all federal, state and local government web resources and services.